Terug naar catalogus

CZ-6A DEB

ActiefSSO
NORAD 56634·DEBRIS·🇨🇳 China

Gelanceerd Nov 11, 2022 vanaf Taiyuan Satellite Launch Center

Loading…

Volgende Passages (komende 24 uur)

TLE

VersSource: Space-Track

Epoch: Sep 14, 2026, 21:56 UTC

1 56634U 22151AFJ 26257.91421762  .00000127  00000-0  77898-4 0  9992
2 56634  98.7750 280.8093 0013383 129.3387 230.8979 14.21728307176370

Volg CZ-6A DEB in realtime met AllMySat

Download on the App Store